Location: Unspecified
(52.4292°N, 19.3359°E)
Time: 16:20:38
(UTC+01:00)

A-11 Canister half - Pass Details

Date: 17 October 2025
Orbit: 1526 x 1682 km, 47.3° (Epoch: 13 November)

Event Time Altitude Azimuth Distance (km) Brightness Sun altitude
Exits shadow 04:37:03 36° 229° (SW) 2,244 9.4 -24.1°
Maximum altitude 04:41:03 61° 167° (SSE) 1,707 9.1 -23.5°
Drops below altitude 10° 04:50:09 10° 91° (E) 3,712 12.1 -22.2°
Sets 04:53:15 0° 88° (E) 4,707 13.0 -21.7°
